Find Kosmos-1805

NORAD ID: 17191 Int'l Des: 1986-097 Owner: GRU Country: SU operational
LEOCIRCULARPOLAR

リアルタイム位置

3D地球を読み込み中...

Kosmos-1805について

説明を読み込み中...

次回通過

Passes for default location (London). Set your location on the main map for personalized predictions.

高度履歴

Loading altitude history...

軌道要素

1 17191U 86097A 26105.81572801 .00013485 00000-0 24454-3 0 9998
2 17191 82.4584 56.5677 0003684 60.1547 300.0070 15.49452558152873
Epoch: Apr 15, 2026 • Age: 7 hours

現在のステータス

高度 428.9 km
速度 7.66 km/s
衛星直下点 75.82°N, 148.22°W
打ち上げ日 Dec 10, 1986
運用期間 39.3 years
タイプ other

技術仕様

分類 Payload
質量 1750.00 kg
乾燥質量 1750.00 kg
総質量 1750.00 kg
長さ 3.20 m
直径 1.30 m
スパン 13.10 m
形状 Cyl + Ant
製造者 YUZH
バスタイプ Tselina-D
フェーズステータス In Orbit
所有者/国 GRU/SU

Most Searched